Weather Roundup
Issued by NWS Chicago, IL

Home | Current Version | Previous Version | Graphics & Text | Print | Product List | Glossary On
Versions: 1 2 3 4 5 6 7 8 9 10 11 12 13 14 15 16 17 18 19 20 21 22 23 24 25 26 27 28 29 30 31 32 33 34 35 36 37 38 39 40 41 42 43 44 45 46 47 48 49 50
119
NZUS59 KLOT 070903
HRRLOT

CHICAGO AREA WEATHER ROUNDUP
NATIONAL WEATHER SERVICE CHICAGO/ROMEOVILLE IL
300 AM CST SUN FEB 07 2016

NOTE: "FAIR" INDICATES FEW OR NO CLOUDS BELOW 12,000 FEET WITH NO
SIGNIFICANT WEATHER AND/OR OBSTRUCTIONS TO VISIBILITY.

* THESE STATIONS ARE NOT UNDER NWS QUALITY CONTROL. THEY ALSO MAY NOT
  REPORT WEATHER SUCH AS PRECIPITATION OR FOG.

ILZ005-006-012>014-019>023-071000-
NORTHEAST ILLINOIS

CITY           SKY/WX    TMP DP  RH WIND       PRES   REMARKS
OHARE          CLOUDY    35  29  78 SW10      29.97F WCI  27
MIDWAY         CLOUDY    37  28  70 S8        29.99F
AURORA         CLOUDY    35  29  78 S9        29.97F WCI  28
LANSING*       CLOUDY    35  30  83 S9        30.01F WCI  28
WAUKEGAN       CLOUDY    35  29  78 SW9       29.93F WCI  28
DUPAGE AIRPORT MOCLDY    33  27  78 S10       29.96F WCI  25
WHEELING       CLOUDY    36  29  75 S10       29.97F
$$

WIZ051-052-058>065-066-070>072-071000-
SOUTHEAST WISCONSIN

CITY           SKY/WX    TMP DP  RH WIND       PRES   REMARKS
MILWAUKEE      CLOUDY    34  28  79 SW9       29.91F WCI  27
KENOSHA*       CLOUDY    36  28  73 S12       29.92F
RACINE*        CLOUDY    37  28  70 S13       29.93F
BURLINGTON     CLOUDY    33  28  82 S9        29.91F WCI  25
$$

INZ001>003-010>013-019-020-071000-
NORTHWEST INDIANA

CITY           SKY/WX    TMP DP  RH WIND       PRES   REMARKS
GARY*          CLOUDY    38  29  71 S5        30.02F
MICHIGAN CITY* NOT AVBL
RENSSELAER*    NOT AVBL
VALPARAISO     PTCLDY    33  29  85 SW7       30.03F WCI  27
$$

LMZ740>746-071000-
SOUTHERN LAKE MICHIGAN

STATION/POSITION TIME  SKY/WX   TEMP WIND        PRES    VSBY
                                AIR  DIR/SP/G
                 (UTC)          (F)  (DEG/KT/KT) (MB)    (MI)
HARRISON CRIB    0800            39  200/ 16/ 17   N/A
BURNHAM HARBOR   0900            38  190/  7/ 10   N/A
CALUMET HARBOR   0800            36  190/  5/  7 1016.0F
BURNS HARBOR     0800            38  200/ 14/ 23 1017.6F
MICHIGAN CITY    0800            37  160/ 13/ 15   N/A
$$

ABBREVIATIONS USED IN REMARKS
   TC - TEMPERATURE IN CELSIUS
  WCI - WIND CHILL INDEX
   HX - HEAT INDEX
  VSB - VISIBILITY
$$




USA.gov is the U.S. government's official web portal to all federal, state and local government web resources and services.